This is the latest recevied weather packets stored in our database for station/object KC8YYF. If no packets are shown the sender has not sent any weather packets the latest 10 day(s).
| Time | Temp. | Humidity | Pressure | Rain* | Wind** | Luminosity | Snow |
|---|---|---|---|---|---|---|---|
| 1777665284 | 8.89° C | 98% | 1012.1 hPa | 0 mm | - | 23 W/m² | - |
| 1777664980 | 8.89° C | 98% | 1011.9 hPa | 0 mm | - | 35 W/m² | - |
| 1777664676 | 8.89° C | 98% | 1012 hPa | 0 mm | - | 147 W/m² | - |
| 1777664372 | 9.44° C | 99% | 1012.2 hPa | 0 mm | - | 117 W/m² | - |
| 1777664070 | 8.89° C | 99% | 1012.1 hPa | 0 mm | - | 146 W/m² | - |
| 1777663767 | 8.33° C | 99% | 1012.1 hPa | 0 mm | - | 148 W/m² | - |
| 1777663464 | 7.78° C | 99% | 1012.2 hPa | 0 mm | - | 35 W/m² | - |
| 1777663162 | 7.78° C | 99% | 1012.4 hPa | 0 mm | - | 21 W/m² | - |
| 1777662859 | 7.78° C | 99% | 1012.2 hPa | 0 mm | - | 13 W/m² | - |
| 1777662556 | 7.78° C | 99% | 1012.4 hPa | 0 mm | - | 37 W/m² | - |
| 1777662252 | 7.78° C | 99% | 1012.4 hPa | 0 mm | - | 18 W/m² | - |
| 1777661952 | 7.78° C | 99% | 1012.6 hPa | 0 mm | - | 48 W/m² | - |
| 1777661649 | 7.78° C | 99% | 1012.4 hPa | 0 mm | - | 33 W/m² | - |
| 1777661344 | 7.78° C | 99% | 1012.6 hPa | 0 mm | - | 35 W/m² | - |
| 1777661041 | 7.78° C | 98% | 1012.4 hPa | 0 mm | - | 35 W/m² | - |
| 1777660736 | 7.78° C | 98% | 1012.4 hPa | 0.51 mm | - | 13 W/m² | - |
| 1777660433 | 7.78° C | 98% | 1012.6 hPa | 0.51 mm | - | 28 W/m² | - |
| 1777660130 | 7.78° C | 98% | 1012.5 hPa | 0 mm | - | 32 W/m² | - |
| 1777659827 | 7.78° C | 98% | 1012.4 hPa | 0 mm | - | 15 W/m² | - |
| 1777659523 | 7.78° C | 98% | 1012.6 hPa | 0 mm | - | 23 W/m² | - |
| 1777659221 | 7.78° C | 98% | 1012.4 hPa | 0.51 mm | - | 44 W/m² | - |
| 1777658918 | 7.22° C | 98% | 1012.4 hPa | 0.51 mm | - | 50 W/m² | - |
| 1777658614 | 7.22° C | 98% | 1012.7 hPa | 0 mm | - | 31 W/m² | - |
| 1777658311 | 7.78° C | 98% | 1012.2 hPa | 0 mm | - | 27 W/m² | - |
| 1777658007 | 7.22° C | 98% | 1012.4 hPa | 0 mm | - | 39 W/m² | - |
* Rain latest hour (hover to see other rain measurements)
** Current wind speed in m/s (hover to see current wind gust speed)